Location: Pinon Hills
(34.4429°N, 117.6403°W)
Time: 09:52:44
(UTC-08:00)

Amateur Radio Satellites - All Passes

Search period start: 06 December 2016 09:22
Search period end: 07 December 2016 09:22
Location: Pinon Hills, 34.4429°N, 117.6403°W

Satellite Date Start Highest point End Downlink Frequencies (MHz)
Time Altitude Azimuth
CUBEBUG 2 06 Dec 09:28:28 09:30:31 13° 294° (WNW) 09:32:33 437.445
QB50P2 06 Dec 09:29:53 09:30:39 10° 65° (ENE) 09:31:26 145.880/145.840
AAUSAT CUBESAT 2 06 Dec 09:38:22 09:39:17 11° 294° (WNW) 09:40:13 437.432
QB50P1 06 Dec 09:41:49 09:44:01 14° 67° (ENE) 09:46:13 145.935-145.965
DUCHIFAT 1 06 Dec 09:44:40 09:46:29 13° 66° (ENE) 09:48:19 145.980
GONETS M04 06 Dec 09:50:08 09:53:34 13° 64° (ENE) 09:57:00
Oscar 11 06 Dec 09:51:18 09:54:31 21° 290° (WNW) 09:57:44 145.826/435.025
CUSAT 1 06 Dec 09:58:36 10:00:12 13° 281° (W) 10:01:40 437.405
AO-85 06 Dec 10:00:56 10:03:53 20° 52° (NE) 10:06:47 145.980
POPSAT HIP 1 06 Dec 10:02:00 10:05:24 23° 70° (ENE) 10:08:49 437.405
JAS-2 06 Dec 10:18:08 10:24:45 68° 75° (ENE) 10:30:36 435.910
PCSat 06 Dec 10:20:23 10:25:21 39° 110° (ESE) 10:30:22 145.827
ESTCUBE 1 06 Dec 10:21:32 10:24:36 18° 94° (E) 10:27:41 437.505/2401.250
UNISAT 6 06 Dec 10:23:54 10:27:11 19° 266° (W) 10:30:28 437.425
DELFI C3 06 Dec 10:32:32 10:35:11 17° 290° (WNW) 10:37:51 145.870
HUMSAT D 06 Dec 10:38:12 10:41:47 30° 287° (WNW) 10:45:20 437.325/437.525
BUGSAT 1 06 Dec 10:38:50 10:41:54 20° 69° (ENE) 10:45:00 437.445
DANDE 06 Dec 10:45:17 10:49:12 24° 279° (W) 10:52:22 436.750
CUBEBUG 1 06 Dec 10:51:27 10:55:00 23° 96° (E) 10:58:31 437.445
NANOSAT C BR1 06 Dec 10:55:24 10:59:40 82° 259° (WSW) 11:03:57 145.865
JUGNU 06 Dec 10:59:21 11:03:03 17° 172° (S) 11:06:44 437.505
QB50P2 06 Dec 11:01:41 11:05:53 58° 259° (W) 11:10:07 145.880/145.840
POLYITAN 1 06 Dec 11:02:11 11:06:25 61° 259° (W) 11:10:41 437.675
VELOX 1 06 Dec 11:03:21 11:06:41 20° 95° (E) 11:10:00 145.980
Cosmos 2499 06 Dec 11:04:59 11:13:12 49° 78° (ENE) 11:20:47 435.465 / 435.565
QB50P1 06 Dec 11:15:19 11:19:22 42° 261° (W) 11:23:27 145.935-145.965
DX 1 06 Dec 11:16:19 11:18:39 14° 94° (E) 11:20:57 434.975-435.025
DUCHIFAT 1 06 Dec 11:17:37 11:21:43 47° 261° (W) 11:25:50 145.980
UKube-1 06 Dec 11:23:20 11:24:57 12° 93° (E) 11:26:34 .
SPROUT 06 Dec 11:33:20 11:37:05 29° 97° (E) 11:40:47 437.525
POPSAT HIP 1 06 Dec 11:37:34 11:41:02 24° 264° (W) 11:44:32 437.405
AO-85 06 Dec 11:40:58 11:44:13 26° 248° (WSW) 11:47:27 145.980
50 SAT 06 Dec 11:41:19 11:44:45 47° 100° (E) 11:48:12 437.505
RS-15 06 Dec 11:42:51 11:48:01 13° 355° (N) 11:53:13 29.354- 29.394
GONETS M04 06 Dec 11:43:01 11:51:46 79° 84° (E) 12:00:31
ESTCUBE 1 06 Dec 11:57:22 12:01:27 34° 288° (WNW) 12:05:32 437.505/2401.250
Oscar 19 06 Dec 12:00:31 12:05:14 39° 71° (ENE) 12:09:59 437.125/150
Gurwin Techsat 1B 06 Dec 12:01:00 12:04:48 20° 66° (ENE) 12:08:35 435.225
AISAT 06 Dec 12:01:52 12:06:20 75° 285° (WNW) 12:10:47 437.250
PCSat 06 Dec 12:04:25 12:08:49 25° 306° (NW) 12:13:16 145.827
JAS-2 06 Dec 12:06:19 12:09:59 15° 265° (W) 12:13:28 435.910
BUGSAT 1 06 Dec 12:13:25 12:17:03 28° 263° (W) 12:20:43 437.445
CUBEBUG 1 06 Dec 12:27:30 12:31:11 26° 290° (WNW) 12:34:50 437.445
BEESAT 3 06 Dec 12:34:53 12:36:26 12° 48° (NE) 12:38:00 437.485
VELOX 1 06 Dec 12:39:14 12:43:06 30° 289° (WNW) 12:46:58 145.980
SRMSAT 06 Dec 12:39:48 12:42:36 14° 167° (SSE) 12:45:24 437.500
JUGNU 06 Dec 12:47:15 12:51:22 19° 182° (S) 12:55:30 437.505
DX 1 06 Dec 12:50:50 12:54:58 41° 287° (WNW) 12:59:04 434.975-435.025
TISAT 1 06 Dec 12:53:33 12:57:28 36° 99° (E) 13:01:19 437.305
UKube-1 06 Dec 12:57:01 13:01:12 47° 286° (WNW) 13:05:20 .
Cosmos 2499 06 Dec 12:58:52 13:05:48 29° 276° (W) 13:12:20 435.465 / 435.565
BEESAT 2 06 Dec 13:05:03 13:06:30 12° 48° (NE) 13:07:58 435.950
SPROUT 06 Dec 13:09:41 13:12:46 20° 291° (WNW) 13:15:50 437.525
ITUPSAT 1 06 Dec 13:32:16 13:35:25 17° 94° (E) 13:38:33 437.325
AO-7 06 Dec 13:39:07 13:46:30 38° 63° (ENE) 13:53:56 29.400- 29.500
Gurwin Techsat 1B 06 Dec 13:39:20 13:44:22 43° 261° (W) 13:49:26 435.225
Oscar 19 06 Dec 13:40:56 13:44:39 20° 265° (W) 13:48:22 437.125/150
GONETS M04 06 Dec 13:42:16 13:47:29 18° 280° (W) 13:52:42
AUBIESAT-1 06 Dec 13:52:29 13:56:07 24° 99° (E) 13:59:37 437.475
RS-15 06 Dec 13:58:40 14:07:44 22° 32° (NNE) 14:16:37 29.354- 29.394
M-CUBED/EXP-1 PRIME 06 Dec 14:04:36 14:09:00 42° 103° (ESE) 14:13:11 437.505
ITAMSAT 1 06 Dec 14:08:32 14:13:44 79° 75° (ENE) 14:18:58 435.822/435.867
BEESAT 3 06 Dec 14:10:29 14:14:23 56° 245° (WSW) 14:18:16 437.485
SRMSAT 06 Dec 14:27:01 14:31:03 19° 177° (S) 14:35:05 437.500
TISAT 1 06 Dec 14:30:15 14:32:44 15° 293° (WNW) 14:35:12 437.305
JUGNU 06 Dec 14:36:37 14:39:40 14° 192° (SSW) 14:42:44 437.505
SWISSCUBE 06 Dec 14:36:37 14:41:22 77° 285° (WNW) 14:46:06 437.505
BEESAT 06 Dec 14:40:36 14:45:22 78° 284° (WNW) 14:50:06 436.000
BEESAT 2 06 Dec 14:40:41 14:44:40 59° 244° (WSW) 14:48:36 435.950
O/OREOS (USA 219) 06 Dec 14:50:21 14:54:22 31° 103° (ESE) 14:58:23 437.305
ITUPSAT 1 06 Dec 15:08:56 15:13:20 39° 288° (WNW) 15:17:44 437.325
ISS 06 Dec 15:13:09 15:16:25 76° 135° (SE) 15:19:42 145.825
AUBIESAT-1 06 Dec 15:26:33 15:30:26 28° 295° (WNW) 15:34:10 437.475
AO-7 06 Dec 15:31:19 15:39:03 43° 259° (W) 15:46:53 29.400- 29.500
AIST 2 06 Dec 15:36:35 15:38:30 13° 48° (NE) 15:40:26 435.215
M-CUBED/EXP-1 PRIME 06 Dec 15:39:58 15:43:03 18° 298° (WNW) 15:46:03 437.505
MOZHAYETS 4 06 Dec 15:41:46 15:46:18 70° 284° (WNW) 15:50:50
CUBESAT XI-V 06 Dec 15:47:16 15:50:10 16° 94° (E) 15:53:04 437.345
BRITE-PL 06 Dec 16:00:03 16:04:06 45° 73° (ENE) 16:08:25 437.365/2234.400
KKS-1 06 Dec 16:07:42 16:12:11 89° 95° (E) 16:16:39 437.445
NOAA 15 06 Dec 16:09:39 16:12:57 17° 65° (ENE) 16:16:15 137.62
RS-15 06 Dec 16:10:36 16:22:59 71° 58° (ENE) 16:34:51 29.354- 29.394
STARS 06 Dec 16:12:11 16:16:24 42° 100° (E) 16:20:33 437.465
Cubesat XI-IV 06 Dec 16:14:47 16:18:12 17° 65° (ENE) 16:21:38 437.490
SRMSAT 06 Dec 16:15:48 16:19:31 17° 188° (S) 16:23:14 437.500
HORYU 2 06 Dec 16:16:18 16:20:42 60° 75° (ENE) 16:25:08 437.375
O/OREOS (USA 219) 06 Dec 16:30:21 16:33:47 21° 298° (WNW) 16:37:13 437.305
LilacSat-2 06 Dec 16:48:18 16:51:42 30° 73° (ENE) 16:55:06 437.200
ISS 06 Dec 16:51:37 16:53:16 13° 332° (NNW) 16:54:56 145.825
GOMX 1 06 Dec 17:10:11 17:14:39 73° 259° (W) 17:19:29 467.674
AIST 2 06 Dec 17:13:11 17:17:21 59° 244° (WSW) 17:21:28 435.215
HO-68 06 Dec 17:16:06 17:20:21 17° 59° (ENE) 17:24:37 435.675
DOVE 4 06 Dec 17:17:08 17:21:42 52° 74° (ENE) 17:26:35 437.250
CUBESAT XI-V 06 Dec 17:23:18 17:27:39 40° 287° (WNW) 17:32:02 437.345
CUTE-I 06 Dec 17:26:11 17:31:34 87° 71° (ENE) 17:36:58 437.470
NOAA 18 06 Dec 17:40:50 17:46:22 77° 74° (ENE) 17:51:55 137.9125
BRITE-PL 06 Dec 17:41:19 17:42:56 12° 270° (W) 17:44:35 437.365/2234.400
Cosmos 2491 06 Dec 17:43:21 17:52:02 67° 81° (E) 18:00:40 435.465 / 435.565
NOAA 15 06 Dec 17:47:11 17:52:15 51° 260° (W) 17:57:22 137.62
STARS 06 Dec 17:49:52 17:52:20 15° 294° (WNW) 17:54:47 437.465
Cubesat XI-IV 06 Dec 17:52:34 17:57:48 52° 260° (W) 18:03:03 437.490
STRAND 1 06 Dec 18:03:09 18:06:00 15° 93° (E) 18:08:51 437.568
YUBILEINY 06 Dec 18:05:54 18:13:59 45° 88° (E) 18:22:06 435.215
LilacSat-2 06 Dec 18:23:53 18:26:01 14° 266° (W) 18:28:09 437.200
RS-15 06 Dec 18:24:35 18:34:20 29° 258° (WSW) 18:43:50 29.354- 29.394
CUTE 1.7 + AOD 2 06 Dec 18:26:37 18:30:31 37° 73° (ENE) 18:34:25 437.475
SO-50 06 Dec 18:28:07 18:31:49 22° 110° (ESE) 18:35:28 436.795
CINEMA 3 06 Dec 18:30:14 18:35:06 78° 77° (ENE) 18:40:09 145.822/145.860
CANX-2 06 Dec 18:44:26 18:48:38 76° 78° (ENE) 18:52:51 2200.000
CUBEBUG 2 06 Dec 18:44:26 18:48:23 27° 71° (ENE) 18:52:19 437.445
Cosmos 2504 06 Dec 18:46:28 18:53:57 39° 87° (E) 19:01:49 435.465 / 435.565
AAUSAT CUBESAT 2 06 Dec 18:47:31 18:50:38 21° 70° (ENE) 18:53:44 437.432
DOVE 4 06 Dec 18:57:23 18:59:44 14° 270° (W) 19:02:10 437.250
HO-68 06 Dec 19:00:01 19:07:10 82° 255° (WSW) 19:14:24 435.675
Oscar 11 06 Dec 19:07:28 19:09:46 14° 67° (ENE) 19:12:03 145.826/435.025
SEEDS 06 Dec 19:08:20 19:12:30 83° 77° (ENE) 19:16:40 437.485
PCSat 06 Dec 19:12:40 19:16:05 17° 50° (NE) 19:19:29 145.827
COMPASS 1 06 Dec 19:17:23 19:21:28 68° 77° (ENE) 19:25:34 437.405
UWE-3 06 Dec 19:24:45 19:29:13 46° 74° (ENE) 19:33:38 435.000/436.395/437.385
NOAA 18 06 Dec 19:26:04 19:27:30 11° 269° (W) 19:28:57 137.9125
AIST 1 06 Dec 19:30:23 19:34:40 79° 277° (W) 19:39:01
STRAND 1 06 Dec 19:40:29 19:45:25 51° 287° (WNW) 19:50:20 437.568
Cosmos 2491 06 Dec 19:41:55 19:47:59 22° 278° (W) 19:54:04 435.465 / 435.565
DELFI C3 06 Dec 19:42:21 19:42:43 10° 67° (ENE) 19:43:04 145.870
PRISM 06 Dec 19:56:20 19:57:59 12° 93° (E) 19:59:38 437.425
YUBILEINY 06 Dec 20:03:10 20:10:49 34° 286° (WNW) 20:18:34 435.215
ZACube-1 06 Dec 20:04:00 20:08:34 79° 76° (ENE) 20:13:04 437.345
CUTE 1.7 + AOD 2 06 Dec 20:04:15 20:06:27 14° 267° (W) 20:08:40 437.475
SO-50 06 Dec 20:07:42 20:12:03 35° 305° (NW) 20:16:24 436.795
FUNcube-1 06 Dec 20:11:14 20:15:48 87° 76° (ENE) 20:20:18 145.935
CUBEBUG 2 06 Dec 20:20:53 20:24:52 26° 264° (W) 20:28:50 437.445
AAUSAT CUBESAT 2 06 Dec 20:22:37 20:25:56 24° 264° (W) 20:29:17 437.432
CUSAT 1 06 Dec 20:29:36 20:33:30 53° 263° (W) 20:38:38 437.405
Cosmos 2504 06 Dec 20:39:35 20:47:12 39° 285° (WNW) 20:55:16 435.465 / 435.565
Oscar 11 06 Dec 20:41:25 20:45:30 41° 261° (W) 20:49:36 145.826/435.025
HO-68 06 Dec 20:54:26 20:55:45 10° 270° (W) 20:57:03 435.675
PCSat 06 Dec 20:54:33 20:59:56 65° 247° (WSW) 21:05:16 145.827
UWE-3 06 Dec 21:03:20 21:05:49 14° 267° (W) 21:08:18 435.000/436.395/437.385
TIGRISAT 06 Dec 21:11:59 21:15:02 18° 94° (E) 21:18:02 435.000
DELFI C3 06 Dec 21:13:16 21:17:03 47° 261° (W) 21:20:51 145.870
ANTELSAT 06 Dec 21:13:29 21:16:45 21° 95° (E) 21:19:58 437.575/2403.000
ESTCUBE 1 06 Dec 21:19:32 21:20:51 11° 65° (ENE) 21:22:09 437.505/2401.250
DANDE 06 Dec 21:24:17 21:27:12 43° 262° (W) 21:30:50 436.750
HUMSAT D 06 Dec 21:24:51 21:29:04 76° 257° (WSW) 21:33:16 437.325/437.525
PRISM 06 Dec 21:29:29 21:33:26 43° 287° (WNW) 21:37:23 437.425
ISS 06 Dec 21:44:25 21:46:55 19° 33° (NNE) 21:49:24 145.825
CUBEBUG 1 06 Dec 21:45:26 21:47:24 13° 66° (ENE) 21:49:22 437.445
VELOX 1 06 Dec 21:58:45 22:00:31 12° 65° (ENE) 22:02:18 145.980
50 SAT 06 Dec 22:15:18 22:16:26 11° 68° (ENE) 22:17:34 437.505
UNISAT 6 06 Dec 22:17:47 22:22:07 63° 284° (WNW) 22:26:20 437.425
SPROUT 06 Dec 22:24:24 22:26:51 15° 67° (ENE) 22:29:18 437.525
NANOSAT C BR1 06 Dec 22:44:07 22:47:16 20° 95° (E) 22:50:23 145.865
GONETS M04 06 Dec 22:47:13 22:52:11 17° 80° (E) 22:57:07
TIGRISAT 06 Dec 22:47:56 22:51:43 30° 289° (WNW) 22:55:28 435.000
ANTELSAT 06 Dec 22:49:45 22:53:26 27° 289° (WNW) 22:57:02 437.575/2403.000
QB50P2 06 Dec 22:50:27 22:54:07 28° 97° (E) 22:57:46 145.880/145.840
POLYITAN 1 06 Dec 22:51:01 22:54:37 27° 97° (E) 22:58:10 437.675
ESTCUBE 1 06 Dec 22:52:42 22:57:06 58° 259° (W) 23:01:31 437.505/2401.250
AISAT 06 Dec 22:55:16 22:59:36 60° 75° (ENE) 23:03:59 437.250
QB50P1 06 Dec 23:03:28 23:07:25 38° 98° (E) 23:11:20 145.935-145.965
DUCHIFAT 1 06 Dec 23:05:16 23:09:06 33° 98° (E) 23:12:53 145.980
JAS-2 06 Dec 23:15:37 23:20:51 78° 103° (ESE) 23:26:27 435.910
PHONESAT 2.4 06 Dec 23:17:54 23:20:33 68° 153° (SSE) 23:23:11 2401.200-2431.200
CUBEBUG 1 06 Dec 23:19:00 23:23:12 48° 260° (W) 23:27:27 437.445
ISS 06 Dec 23:20:24 23:23:30 38° 228° (SW) 23:26:35 145.825
POPSAT HIP 1 06 Dec 23:24:52 23:29:06 70° 101° (ESE) 23:33:17 437.405
VELOX 1 06 Dec 23:32:12 23:36:29 52° 260° (W) 23:40:48 145.980
Cosmos 2499 06 Dec 23:35:41 23:43:34 45° 88° (E) 23:51:48 435.465 / 435.565
DX 1 06 Dec 23:42:11 23:46:30 78° 257° (WSW) 23:50:53 434.975-435.025
TISAT 1 06 Dec 23:42:23 23:45:15 18° 68° (ENE) 23:48:08 437.305
50 SAT 06 Dec 23:46:13 23:49:23 32° 262° (W) 23:52:34 437.505
UKube-1 06 Dec 23:47:23 23:51:41 87° 79° (E) 23:56:02 .
BUGSAT 1 06 Dec 23:58:08 00:02:12 52° 100° (E) 00:06:13 437.445
SPROUT 06 Dec 23:58:23 00:02:23 39° 261° (W) 00:06:27 437.525
AO-85 07 Dec 00:11:35 00:15:08 19° 110° (ESE) 00:18:32 145.980
Oscar 19 07 Dec 00:16:25 00:20:00 19° 94° (E) 00:23:34 437.125/150
NANOSAT C BR1 07 Dec 00:19:24 00:22:55 26° 289° (WNW) 00:26:25 145.865
QB50P2 07 Dec 00:26:40 00:29:41 19° 291° (WNW) 00:32:42 145.880/145.840
POLYITAN 1 07 Dec 00:27:06 00:30:12 20° 291° (WNW) 00:33:18 437.675
AUBIESAT-1 07 Dec 00:35:13 00:37:51 17° 62° (ENE) 00:40:36 437.475
ITUPSAT 1 07 Dec 00:36:22 00:38:58 15° 65° (ENE) 00:41:33 437.325
GONETS M04 07 Dec 00:39:06 00:47:50 82° 276° (W) 00:56:34
QB50P1 07 Dec 00:40:26 00:42:49 15° 293° (WNW) 00:45:11 145.935-145.965
DUCHIFAT 1 07 Dec 00:41:49 00:44:28 16° 292° (WNW) 00:47:07 145.980
M-CUBED/EXP-1 PRIME 07 Dec 00:47:19 00:50:49 28° 65° (ENE) 00:54:31 437.505
PHONESAT 2.4 07 Dec 00:53:36 00:55:54 26° 349° (N) 00:58:14 2401.200-2431.200
O/OREOS (USA 219) 07 Dec 01:03:39 01:07:42 33° 65° (ENE) 01:11:44 437.305
JAS-2 07 Dec 01:04:39 01:05:21 10° 297° (WNW) 01:06:03 435.910
TISAT 1 07 Dec 01:16:50 01:20:36 31° 262° (W) 01:24:25 437.305
Cosmos 2499 07 Dec 01:29:05 01:36:42 36° 286° (WNW) 01:44:42 435.465 / 435.565
BUGSAT 1 07 Dec 01:36:02 01:37:02 11° 295° (WNW) 01:38:03 437.445
SWISSCUBE 07 Dec 01:39:12 01:43:58 82° 76° (ENE) 01:48:45 437.505
BEESAT 07 Dec 01:43:07 01:47:53 80° 75° (ENE) 01:52:40 436.000
AO-7 07 Dec 01:47:40 01:50:50 12° 91° (E) 01:53:58 29.400- 29.500
AO-85 07 Dec 01:50:36 01:55:20 42° 302° (WNW) 01:59:44 145.980
Oscar 19 07 Dec 01:54:33 01:59:27 43° 288° (WNW) 02:04:20 437.125/150
Gurwin Techsat 1B 07 Dec 01:58:49 02:04:09 82° 284° (WNW) 02:09:28 435.225
AUBIESAT-1 07 Dec 02:08:06 02:11:52 37° 258° (WSW) 02:15:55 437.475
ITUPSAT 1 07 Dec 02:11:41 02:16:20 51° 260° (W) 02:20:59 437.325
M-CUBED/EXP-1 PRIME 07 Dec 02:22:11 02:25:14 21° 262° (W) 02:28:29 437.505
ITAMSAT 1 07 Dec 02:25:18 02:30:04 36° 98° (E) 02:34:48 435.822/435.867
PHONESAT 2.4 07 Dec 02:29:25 02:31:35 22° 6° (N) 02:33:45 2401.200-2431.200
MOZHAYETS 4 07 Dec 02:39:39 02:44:13 72° 76° (ENE) 02:48:47
GONETS M04 07 Dec 02:42:11 02:45:58 13° 295° (WNW) 02:49:46
O/OREOS (USA 219) 07 Dec 02:43:47 02:46:47 18° 260° (W) 02:49:47 437.305
CUBESAT XI-V 07 Dec 02:49:10 02:50:15 11° 65° (ENE) 02:51:22 437.345
KKS-1 07 Dec 03:01:55 03:06:15 51° 74° (ENE) 03:10:35 437.445
STARS 07 Dec 03:05:35 03:09:10 25° 70° (ENE) 03:12:45 437.465
AO-7 07 Dec 03:36:08 03:44:33 81° 107° (ESE) 03:52:56 29.400- 29.500
BEESAT 3 07 Dec 03:56:58 04:00:45 55° 116° (ESE) 04:04:36 437.485
PHONESAT 2.4 07 Dec 04:04:27 04:07:05 65° 22° (NNE) 04:09:42 2401.200-2431.200
ITAMSAT 1 07 Dec 04:05:18 04:09:17 23° 293° (WNW) 04:13:13 435.822/435.867
BRITE-PL 07 Dec 04:07:39 04:12:11 25° 95° (E) 04:16:47 437.365/2234.400
HORYU 2 07 Dec 04:12:14 04:14:43 15° 94° (E) 04:17:10 437.375
YUBILEINY 07 Dec 04:21:47 04:27:22 18° 67° (ENE) 04:32:54 435.215
CUBESAT XI-V 07 Dec 04:22:30 04:27:02 63° 259° (W) 04:31:36 437.345
BEESAT 2 07 Dec 04:28:38 04:32:27 54° 115° (ESE) 04:36:19 435.950
KKS-1 07 Dec 04:41:26 04:43:02 12° 267° (W) 04:44:39 437.445
STARS 07 Dec 04:41:45 04:45:22 25° 263° (W) 04:49:01 437.465
SO-50 07 Dec 04:42:01 04:46:32 78° 61° (ENE) 04:50:57 436.795
Cosmos 2504 07 Dec 04:48:10 04:49:34 10° 61° (ENE) 04:50:56 435.465 / 435.565
Cosmos 2491 07 Dec 04:49:03 04:52:47 13° 78° (ENE) 04:56:30 435.465 / 435.565
GOMX 1 07 Dec 05:15:03 05:20:22 48° 99° (E) 05:25:36 467.674
STRAND 1 07 Dec 05:15:51 05:18:56 16° 65° (ENE) 05:22:01 437.568
DOVE 4 07 Dec 05:20:24 05:24:21 21° 93° (E) 05:28:11 437.250
AO-7 07 Dec 05:30:40 05:36:20 21° 304° (WNW) 05:42:01 29.400- 29.500
BEESAT 3 07 Dec 05:37:17 05:38:43 12° 312° (NW) 05:40:09 437.485
PHONESAT 2.4 07 Dec 05:40:28 05:42:04 15° 215° (SW) 05:43:40 2401.200-2431.200
AIST 1 07 Dec 05:42:00 05:45:02 18° 75° (ENE) 05:48:03
BRITE-PL 07 Dec 05:45:33 05:50:37 38° 288° (WNW) 05:55:49 437.365/2234.400
CUTE-I 07 Dec 05:47:04 05:52:12 47° 100° (E) 05:57:16 437.470
HORYU 2 07 Dec 05:47:15 05:51:23 40° 288° (WNW) 05:55:29 437.375
LilacSat-2 07 Dec 05:58:41 06:02:27 78° 101° (ESE) 06:06:12 437.200
NOAA 15 07 Dec 06:05:38 06:10:56 81° 103° (ESE) 06:16:14 137.62
NOAA 18 07 Dec 06:06:48 06:12:04 44° 100° (E) 06:17:16 137.9125
BEESAT 2 07 Dec 06:08:59 06:10:33 12° 312° (NW) 06:12:08 435.950
Cubesat XI-IV 07 Dec 06:13:17 06:18:39 85° 103° (ESE) 06:23:58 437.490
YUBILEINY 07 Dec 06:16:16 06:25:07 82° 266° (W) 06:33:57 435.215
RS-15 07 Dec 06:28:01 06:39:24 65° 112° (ESE) 06:51:23 29.354- 29.394
CINEMA 3 07 Dec 06:29:37 06:33:28 24° 95° (E) 06:37:09 145.822/145.860
HO-68 07 Dec 06:32:46 06:38:20 24° 95° (E) 06:43:51 435.675
CANX-2 07 Dec 06:34:01 06:36:47 17° 94° (E) 06:39:32 2200.000
Cosmos 2504 07 Dec 06:36:01 06:44:44 68° 81° (E) 06:52:51 435.465 / 435.565
Cosmos 2491 07 Dec 06:39:25 06:48:13 86° 96° (E) 06:57:01 435.465 / 435.565
STRAND 1 07 Dec 06:52:38 06:57:38 52° 260° (W) 07:02:38 437.568
GOMX 1 07 Dec 06:54:06 06:58:00 20° 293° (WNW) 07:01:51 467.674
SEEDS 07 Dec 06:56:39 06:59:28 18° 94° (E) 07:02:18 437.485
DOVE 4 07 Dec 06:57:13 07:02:06 38° 288° (WNW) 07:06:47 437.250
COMPASS 1 07 Dec 07:05:05 07:07:18 14° 93° (E) 07:09:31 437.405
AIST 2 07 Dec 07:06:53 07:10:56 68° 117° (ESE) 07:15:03 435.215
AIST 1 07 Dec 07:18:47 07:22:38 30° 270° (W) 07:26:28
UWE-3 07 Dec 07:20:43 07:21:49 11° 91° (E) 07:22:55 435.000/436.395/437.385
CUTE-I 07 Dec 07:28:12 07:31:49 19° 295° (WNW) 07:35:27 437.470
NOAA 18 07 Dec 07:48:16 07:52:21 22° 295° (WNW) 07:56:25 137.9125
NOAA 15 07 Dec 07:48:34 07:49:58 11° 298° (WNW) 07:51:23 137.62
CUTE 1.7 + AOD 2 07 Dec 07:50:15 07:54:25 63° 284° (WNW) 07:58:35 437.475
Cubesat XI-IV 07 Dec 07:56:55 07:57:56 11° 299° (WNW) 07:58:56 437.490
ZACube-1 07 Dec 07:57:07 08:00:02 18° 94° (E) 08:02:54 437.345
FUNcube-1 07 Dec 08:03:51 08:06:57 20° 95° (E) 08:10:01 145.935
CINEMA 3 07 Dec 08:06:33 08:10:31 27° 290° (WNW) 08:14:19 145.822/145.860
AAUSAT CUBESAT 2 07 Dec 08:07:13 08:11:20 65° 100° (E) 08:15:27 437.432
TIGRISAT 07 Dec 08:08:14 08:10:15 13° 66° (ENE) 08:12:15 435.000
CANX-2 07 Dec 08:08:55 08:12:39 31° 288° (WNW) 08:16:24 2200.000
ANTELSAT 07 Dec 08:09:37 08:12:02 14° 67° (ENE) 08:14:27 437.575/2403.000
CUBEBUG 2 07 Dec 08:14:44 08:19:06 89° 283° (WNW) 08:23:18 437.445
PRISM 07 Dec 08:14:45 08:18:48 78° 74° (ENE) 08:22:52 437.425
YUBILEINY 07 Dec 08:17:09 08:20:27 13° 283° (WNW) 08:23:45 435.215
HO-68 07 Dec 08:19:19 08:26:19 56° 290° (WNW) 08:33:17 435.675
Cosmos 2504 07 Dec 08:31:07 08:37:08 21° 279° (W) 08:42:56 435.465 / 435.565
SEEDS 07 Dec 08:31:30 08:35:10 30° 288° (WNW) 08:38:50 437.485
Oscar 11 07 Dec 08:31:54 08:36:01 44° 99° (E) 08:40:06 145.826/435.025
COMPASS 1 07 Dec 08:39:07 08:42:57 37° 287° (WNW) 08:46:47 437.405
Cosmos 2491 07 Dec 08:40:57 08:46:06 17° 293° (WNW) 08:51:16 435.465 / 435.565
RS-15 07 Dec 08:41:57 08:52:37 38° 314° (NW) 09:03:46 29.354- 29.394
DANDE 07 Dec 08:48:22 08:51:13 16° 96° (E) 08:53:40 436.750
AIST 2 07 Dec 08:48:43 08:49:51 11° 313° (NW) 08:51:00 435.215
DELFI C3 07 Dec 08:54:13 08:57:34 25° 97° (E) 09:00:54 145.870
UWE-3 07 Dec 08:54:27 08:58:33 47° 286° (WNW) 09:02:33 435.000/436.395/437.385
JUGNU 07 Dec 08:59:24 08:59:38 10° 163° (SSE) 08:59:52 437.505
UNISAT 6 07 Dec 09:12:11 09:16:50 72° 76° (ENE) 09:21:29 437.425
HUMSAT D 07 Dec 09:12:25 09:15:31 21° 95° (E) 09:18:37 437.325/437.525
